ROMMA est une association bénévole à but non lucratif. Votre soutien est indispensable : ADHERER à ROMMA ou FAIRE un DON

Montélimar - (26, Drôme)

Basse vallée du Rhône (88 m)   Longitude: 04° 45' E   Latitude: 44° 32' N Station partenaire n°164
 

Détail journalier du     <<     >>

Température Precipitation Humidité Pression Vent Dir Rafale Dir. rafale Ensol.
Heure (°C) (mm) (%) (hPa) (km/h) (km/h) (min)
01:00 15.4062101300---0
02:00 15.2065101300---0
03:00 14.80681011010N0
04:00 14.107510111---11N0
05:00 13.8076101000---0
06:00 13.7075101100---0
07:00 13.7077101100---0
08:00 13.5082101302ONO0
09:00 13.20.282101300---0
10:00 13.5083101300---0
11:00 14.40.282101303SSO0
12:00 15.4076101400---0
13:00 16.806710132---16N0
14:00 17.406510133---16NO0
15:00 17.706510137N21N0
16:00 18.206210139N26N0
17:00 18.706010139NE27N0
18:00 18.706210139NNE27NE0
19:00 19.306110149NE27NE0
20:00 19.206110146NE24NE0
21:00 19.105910155NE19NE0
22:00 18.905910165NE24ENE0
23:00 19.105810179NE31NE0
minuit 19.105710178NE24N0

Graphique du 10-09-2019

 

Serveur OMMA